Gwinner, ND

4:02 PM CST on February 23, 2017 (GMT -0600)
Gwinner-melroe

Weather History for KGWR - December, 2011

Change the Weather History Date:

Saturday, December 10, 2011

  Actual Average (KP67) Record (KP67)
Temperature  
Mean Temperature 30 °F -  
Max Temperature 44 °F 25 °F 28 °F (1997)
Min Temperature 17 °F 12 °F 12 °F (1997)
Degree Days  
Heating Degree Days 34    
Moisture  
Dew Point 17 °F    
Average Humidity 63    
Maximum Humidity 80    
Minimum Humidity 43    
Precipitation  
Precipitation 0.00 in - - ()
Sea Level Pressure  
Sea Level Pressure 30.05 in    
Wind  
Wind Speed 16 mph (SW)    
Max Wind Speed 21 mph    
Max Gust Speed 26 mph    
Visibility 10 miles    
Events      
Averages and records for this station are not official NWS values.
T = Trace of Precipitation, MM = Missing Value Source: NWS Daily Summary

Daily Weather History Graph

Daily Weather History Graph

Search for Another Location

Airport or City:

Trip Planner

Search our weather history database for the weather conditions in past years. The results will help you decide how hot, cold, wet, or windy it might be!

Date:

Astronomy

Dec. 10, 2011 Rise Set
Actual Time 8:02 AM CST 4:44 PM CST
Civil Twilight 7:27 AM CST 5:18 PM CST
Nautical Twilight 6:49 AM CST 5:56 PM CST
Astronomical Twilight 6:13 AM CST 6:33 PM CST
Moon 4:58 PM CST (12/10) 8:04 AM CST (12/10)
Length of Visible Light 9h 51m
Length of Day
8h 42m
Full, 100% of the Moon is Illuminated
Dec 10
Full
Dec 17
Last Quarter
Dec 24
New
Jan 1
First Quarter
Jan 9
Full

Hourly Weather History & Observations

Time (CST) Temp. Windchill Dew Point Humidity Pressure Visibility Wind Dir Wind Speed Gust Speed Precip Events Conditions
12:15 AM 17.6 °F 2.7 °F 5.0 °F 58% 30.16 in 10.0 mi SSW 16.1 mph - 0.00 in   Clear
12:35 AM 17.6 °F 3.2 °F 5.0 °F 58% 30.15 in 10.0 mi SSW 15.0 mph 21.9 mph 0.00 in   Clear
1:15 AM 17.6 °F 3.7 °F 6.8 °F 63% 30.14 in 10.0 mi SSW 13.8 mph - 0.00 in   Clear
1:35 AM 17.6 °F 2.7 °F 6.8 °F 63% 30.13 in 10.0 mi SW 16.1 mph - 0.00 in   Clear
1:55 AM 17.6 °F 2.2 °F 8.6 °F 68% 30.11 in 10.0 mi SW 17.3 mph 24.2 mph 0.00 in   Clear
2:15 AM 19.4 °F 4.1 °F 8.6 °F 63% 30.11 in 10.0 mi SW 18.4 mph - 0.00 in   Mostly Cloudy
2:55 AM 19.4 °F 5.0 °F 10.4 °F 68% 30.11 in 10.0 mi SW 16.1 mph - 0.00 in   Overcast
3:15 AM 21.2 °F 6.0 °F 10.4 °F 63% 30.10 in 10.0 mi SW 19.6 mph 25.3 mph 0.00 in   Overcast
3:35 AM 21.2 °F 6.4 °F 10.4 °F 63% 30.09 in 10.0 mi SW 18.4 mph - 0.00 in   Overcast
3:55 AM 21.2 °F 5.6 °F 10.4 °F 63% 30.07 in 10.0 mi SW 20.7 mph 26.5 mph 0.00 in   Overcast
4:15 AM 21.2 °F 6.0 °F 10.4 °F 63% 30.07 in 10.0 mi SW 19.6 mph 25.3 mph 0.00 in   Mostly Cloudy
4:35 AM 19.4 °F 3.6 °F 10.4 °F 68% 30.06 in 10.0 mi SW 19.6 mph 25.3 mph 0.00 in   Partly Cloudy
4:55 AM 19.4 °F 4.1 °F 10.4 °F 68% 30.06 in 10.0 mi SW 18.4 mph - 0.00 in   Clear
5:35 AM 19.4 °F 4.5 °F 12.2 °F 74% 30.05 in 10.0 mi SW 17.3 mph 24.2 mph 0.00 in   Clear
5:55 AM 19.4 °F 3.6 °F 12.2 °F 74% 30.04 in 10.0 mi SSW 19.6 mph - 0.00 in   Clear
6:15 AM 19.4 °F 4.1 °F 12.2 °F 74% 30.05 in 10.0 mi SW 18.4 mph - 0.00 in   Clear
6:35 AM 19.4 °F 5.5 °F 12.2 °F 74% 30.06 in 10.0 mi SW 15.0 mph - 0.00 in   Clear
6:55 AM 19.4 °F 5.5 °F 12.2 °F 74% 30.07 in 10.0 mi SW 15.0 mph - 0.00 in   Clear
7:15 AM 19.4 °F 6.6 °F 14.0 °F 80% 30.07 in 10.0 mi SW 12.7 mph - 0.00 in   Clear
7:35 AM 19.4 °F 5.5 °F 14.0 °F 80% 30.07 in 10.0 mi SW 15.0 mph - 0.00 in   Clear
7:55 AM 19.4 °F 4.5 °F 14.0 °F 80% 30.06 in 10.0 mi SW 17.3 mph - 0.00 in   Clear
8:15 AM 19.4 °F 5.0 °F 14.0 °F 80% 30.06 in 10.0 mi SW 16.1 mph - 0.00 in   Clear
8:35 AM 19.4 °F 6.0 °F 14.0 °F 80% 30.06 in 10.0 mi SW 13.8 mph - 0.00 in   Clear
8:55 AM 21.2 °F 7.3 °F 15.8 °F 80% 30.07 in 10.0 mi SW 16.1 mph - 0.00 in   Clear
9:15 AM 23.0 °F 10.6 °F 15.8 °F 74% 30.07 in 10.0 mi SW 13.8 mph - 0.00 in   Clear
9:55 AM 26.6 °F 13.1 °F 17.6 °F 69% 30.07 in 10.0 mi WSW 19.6 mph - 0.00 in   Clear
10:15 AM 28.4 °F 17.0 °F 19.4 °F 69% 30.08 in 10.0 mi WSW 15.0 mph - 0.00 in   Clear
10:35 AM 32.0 °F 21.2 °F 19.4 °F 60% 30.08 in 10.0 mi WSW 16.1 mph 19.6 mph 0.00 in   Clear
10:55 AM 32.0 °F 22.1 °F 19.4 °F 60% 30.08 in 10.0 mi WSW 13.8 mph - 0.00 in   Clear
11:15 AM 33.8 °F 25.3 °F 21.2 °F 60% 30.08 in 10.0 mi WSW 11.5 mph 16.1 mph 0.00 in   Clear
11:35 AM 35.6 °F 27.5 °F 21.2 °F 56% 30.07 in 10.0 mi West 11.5 mph - 0.00 in   Clear
11:55 AM 37.4 °F 29.3 °F 21.2 °F 52% 30.07 in 10.0 mi West 12.7 mph - 0.00 in   Clear
12:15 PM 37.4 °F 29.3 °F 21.2 °F 52% 30.06 in 10.0 mi WSW 12.7 mph - 0.00 in   Clear
12:35 PM 39.2 °F 32.0 °F 23.0 °F 52% 30.06 in 10.0 mi West 11.5 mph - 0.00 in   Clear
12:55 PM 39.2 °F 31.2 °F 23.0 °F 52% 30.05 in 10.0 mi WSW 13.8 mph - 0.00 in   Clear
1:35 PM 42.8 °F 36.2 °F 23.0 °F 46% 30.04 in 10.0 mi SW 12.7 mph - 0.00 in   Clear
1:55 PM 42.8 °F 35.4 °F 23.0 °F 46% 30.03 in 10.0 mi WSW 15.0 mph - 0.00 in   Clear
2:15 PM 42.8 °F 35.1 °F 23.0 °F 46% 30.02 in 10.0 mi SW 16.1 mph - 0.00 in   Clear
2:35 PM 44.6 °F 38.1 °F 23.0 °F 43% 30.02 in 10.0 mi SW 13.8 mph - 0.00 in   Clear
2:55 PM 44.6 °F 38.4 °F 24.8 °F 46% 30.02 in 10.0 mi SW 12.7 mph - 0.00 in   Clear
3:15 PM 44.6 °F 37.8 °F 24.8 °F 46% 30.01 in 10.0 mi SW 15.0 mph - 0.00 in   Clear
3:35 PM 42.8 °F 35.8 °F 23.0 °F 46% 30.02 in 10.0 mi WSW 13.8 mph - 0.00 in   Clear
3:55 PM 42.8 °F 36.6 °F 23.0 °F 46% 30.02 in 10.0 mi SW 11.5 mph - 0.00 in   Clear
4:15 PM 39.2 °F 32.0 °F 23.0 °F 52% 30.01 in 10.0 mi SW 11.5 mph - 0.00 in   Clear
4:55 PM 33.8 °F 25.3 °F 21.2 °F 60% 30.00 in 10.0 mi SSW 11.5 mph - 0.00 in   Clear
5:15 PM 35.6 °F 26.6 °F 23.0 °F 60% 29.99 in 10.0 mi SSW 13.8 mph - 0.00 in   Clear
5:35 PM 35.6 °F 26.6 °F 21.2 °F 56% 29.99 in 10.0 mi SSW 13.8 mph - 0.00 in   Clear
5:55 PM 33.8 °F 24.8 °F 23.0 °F 65% 29.98 in 10.0 mi SSW 12.7 mph - 0.00 in   Clear
6:15 PM 33.8 °F 23.9 °F 23.0 °F 65% 29.98 in 10.0 mi SSW 15.0 mph - 0.00 in   Clear
6:35 PM 33.8 °F 24.8 °F 23.0 °F 65% 29.97 in 10.0 mi SSW 12.7 mph - 0.00 in   Clear
6:55 PM 33.8 °F 24.8 °F 23.0 °F 65% 29.97 in 10.0 mi SSW 12.7 mph - 0.00 in   Clear
7:15 PM 33.8 °F 23.2 °F 23.0 °F 65% 29.95 in 10.0 mi SSW 17.3 mph - 0.00 in   Clear
7:35 PM 33.8 °F 23.5 °F 24.8 °F 70% 29.95 in 10.0 mi SSW 16.1 mph - 0.00 in   Clear
7:55 PM 33.8 °F 23.5 °F 23.0 °F 65% 29.94 in 10.0 mi SSW 16.1 mph - 0.00 in   Clear
8:15 PM 33.8 °F 23.9 °F 23.0 °F 65% 29.93 in 10.0 mi SSW 15.0 mph - 0.00 in   Clear
8:35 PM 35.6 °F 25.5 °F 24.8 °F 65% 29.92 in 10.0 mi SSW 17.3 mph - 0.00 in   Clear
8:55 PM 35.6 °F 24.5 °F 24.8 °F 65% 29.91 in 10.0 mi SW 20.7 mph 25.3 mph 0.00 in   Clear
9:15 PM 35.6 °F 24.8 °F 23.0 °F 60% 29.90 in 10.0 mi SW 19.6 mph - 0.00 in   Clear
9:35 PM 35.6 °F 24.8 °F 23.0 °F 60% 29.90 in 10.0 mi SW 19.6 mph 25.3 mph 0.00 in   Clear
9:55 PM 37.4 °F 26.9 °F 24.8 °F 60% 29.90 in 10.0 mi SW 20.7 mph 26.5 mph 0.00 in   Clear
10:15 PM 35.6 °F 24.2 °F 23.0 °F 60% 29.90 in 10.0 mi SW 21.9 mph - 0.00 in   Clear
10:35 PM 37.4 °F 26.9 °F 24.8 °F 60% 29.89 in 10.0 mi SW 20.7 mph 26.5 mph 0.00 in   Clear
10:55 PM 37.4 °F 26.9 °F 24.8 °F 60% 29.90 in 10.0 mi SW 20.7 mph 26.5 mph 0.00 in   Clear
11:15 PM 37.4 °F 27.2 °F 24.8 °F 60% 29.90 in 10.0 mi SW 19.6 mph 25.3 mph 0.00 in   Clear
11:35 PM 35.6 °F 25.9 °F 24.8 °F 65% 29.90 in 10.0 mi SW 16.1 mph - 0.00 in   Clear
11:55 PM 35.6 °F 25.5 °F 24.8 °F 65% 29.90 in 10.0 mi SW 17.3 mph - 0.00 in   Clear